Theta_e
297 296 297 298 298 298 299 299 300 300 299 300 302 302 303 303 303 303 303 306 308 308 308 309 310 310 311 311 312 313 313 311 310 310 309 309 308 308 307 306 304 303 301 303 301 301 301 301 299 299 297 297 299 298 298 298 299 298 297 296 296 298
296 296 297 298 299 299 299 298 299 300 299 300 300 300 301 303 304 305 307 306 309 308 309 310 311 310 312 312 314 314 314 311 309 308 307 305 305 304 303 302 301 300 298 297 297 295 293 293 292 293 292 292 291 291 292 291 293 294 294 293 293 297
296 297 297 297 296 296 297 298 300 298 299 300 301 304 303 304 303 306 307 308 308 309 310 310 311 311 311 310 309 309 309 307 306 305 304 303 301 300 299 298 297 296 295 294 293 292 291 292 290 288 288 289 288 288 289 289 290 290 289 289 290 289
293 293 293 293 295 295 296 296 299 298 299 300 301 303 304 305 304 306 307 308 310 310 311 310 309 308 307 306 305 304 304 304 303 301 299 298 295 297 297 295 294 292 292 292 292 290 291 291 293 288 289 289 289 288 291 289 288 288 288 287 289 288
292 292 292 293 293 293 292 294 297 298 299 300 299 303 301 304 303 304 305 307 309 307 306 305 303 303 302 301 300 299 298 297 296 297 298 295 293 292 292 291 291 291 292 291 290 290 289 289 288 287 290 289 289 289 289 287 288 288 288 288 287 288
289 291 292 294 293 292 293 293 295 298 298 299 300 301 302 303 304 304 304 303 302 302 300 300 299 299 299 298 297 296 295 295 294 294 294 292 292 291 289 291 291 291 290 290 289 289 289 289 288 288 287 288 287 287 287 287 287 286 287 287 288 288
290 292 291 291 290 290 291 292 294 297 298 299 300 300 300 301 302 302 300 299 298 298 298 297 297 297 295 295 294 293 293 292 292 291 292 291 290 290 290 289 289 290 291 291 291 290 289 287 286 288 288 287 285 285 286 286 286 286 287 287 287 287
290 289 290 290 289 289 290 289 290 293 295 296 297 297 297 297 298 298 297 297 296 295 295 294 295 294 293 292 292 292 291 290 290 289 289 290 290 289 288 289 288 288 289 289 288 288 287 286 285 285 284 284 284 285 285 285 285 284 285 286 286 285
290 291 289 290 288 288 288 289 289 289 291 291 291 294 295 294 296 296 296 295 294 293 292 292 291 292 291 290 289 289 289 289 288 289 288 288 288 289 288 288 288 287 288 287 287 288 288 287 287 287 286 286 285 285 285 285 286 286 285 285 284 284
290 289 288 287 288 286 286 286 288 289 289 290 289 290 292 293 294 294 293 293 292 291 290 289 289 289 288 288 289 289 288 288 288 288 287 287 288 288 288 287 287 286 286 286 286 286 286 286 286 286 286 285 285 285 285 285 285 285 284 284 284 284
290 289 288 287 286 287 286 287 287 288 288 288 288 289 290 290 291 291 291 290 289 287 287 287 288 288 288 288 288 288 288 287 287 287 287 286 286 286 286 286 286 286 285 285 285 285 286 286 286 286 286 286 286 285 285 285 284 284 284 284 284 284
289 289 288 286 287 287 287 288 288 289 289 289 288 289 288 290 289 289 289 288 287 287 287 287 288 288 287 288 287 286 286 286 286 286 285 285 285 285 285 285 285 285 285 285 284 284 285 286 286 288 290 290 286 284 284 284 284 284 284 283 282 283
289 288 287 288 287 288 289 289 289 289 289 288 288 288 288 289 288 288 287 287 286 286 287 287 286 286 286 285 285 285 285 285 285 285 284 284 284 284 284 284 284 284 284 284 284 283 284 285 287 290 291 292 291 285 283 283 283 283 283 282 283 283
289 288 288 288 288 288 289 289 289 289 288 288 288 287 287 288 287 287 286 285 285 286 285 285 285 285 284 284 284 284 284 284 284 284 284 284 283 283 283 283 283 283 283 283 283 283 283 285 289 290 291 291 291 289 284 283 283 283 283 282 282 282
290 289 288 288 288 289 288 288 288 288 288 287 287 287 287 286 286 285 285 284 284 284 284 284 284 283 283 283 283 283 283 283 283 283 283 283 282 282 283 282 283 282 282 282 282 282 283 283 289 290 290 289 289 288 285 283 282 282 282 282 281 281
288 288 288 288 287 287 287 286 287 287 286 286 286 286 285 285 285 284 284 283 283 283 283 283 283 282 282 282 282 282 282 282 282 281 282 282 282 282 282 282 282 282 282 282 282 282 283 284 288 288 288 288 288 287 285 281 281 281 281 281 281 281
287 287 286 287 287 286 286 286 285 285 285 285 285 285 284 284 284 283 283 282 282 282 282 282 282 281 281 281 281 281 281 281 281 281 281 281 281 282 282 281 282 282 282 282 282 282 282 284 287 287 287 288 287 286 284 281 282 281 281 281 280 280
288 288 287 286 286 286 286 285 285 285 284 284 284 284 283 283 282 282 282 281 281 281 281 281 281 281 280 280 280 280 280 280 280 280 280 281 281 281 281 280 281 281 281 281 281 281 280 282 286 286 286 287 286 285 281 281 280 280 280 279 279 279
287 286 286 285 286 285 285 285 284 284 283 283 283 282 282 282 281 281 281 280 280 280 280 281 280 280 280 280 280 280 280 280 280 280 279 280 280 280 280 280 280 280 280 280 280 280 280 280 284 285 286 286 285 282 280 279 278 278 278 279 279 278
285 285 286 285 285 285 284 284 284 283 283 282 281 281 280 280 280 280 279 279 279 279 279 280 280 279 279 279 279 279 279 278 278 279 278 280 280 279 279 279 279 280 280 280 280 279 279 278 281 284 285 285 285 282 279 278 278 278 278 278 279 279
286 285 285 285 284 283 283 283 283 282 281 280 280 280 279 279 279 279 278 278 278 278 278 278 278 278 278 278 278 278 278 278 278 277 277 278 278 278 278 279 280 280 280 279 279 279 277 276 278 283 284 284 284 282 280 279 278 278 279 278 278 279
285 284 284 284 283 283 282 282 282 281 280 279 279 279 278 278 278 277 277 277 277 277 277 277 276 277 277 277 277 277 277 277 277 276 277 277 278 278 279 279 279 278 278 277 276 277 277 277 277 280 283 283 283 283 280 278 278 277 278 278 278 277
286 285 285 284 282 282 281 281 281 279 279 278 278 278 278 277 277 276 276 276 275 275 275 274 275 275 275 276 276 276 276 275 276 276 276 277 277 278 278 277 277 277 276 277 277 276 277 277 276 277 281 282 282 282 281 278 278 279 278 277 277 277
283 283 282 282 281 281 281 281 280 278 278 278 278 277 276 276 275 275 274 274 274 273 273 273 272 273 274 274 275 275 274 274 275 276 276 276 276 276 276 276 276 276 276 276 276 276 275 276 277 275 279 281 281 281 281 279 278 279 278 277 277 277
282 282 282 281 280 280 280 280 278 277 277 277 276 275 275 274 274 274 273 273 272 272 271 271 272 273 273 273 274 274 274 274 275 275 275 274 274 274 274 275 275 275 274 274 275 274 275 275 275 278 277 279 280 281 281 281 280 281 279 277 275 276
282 281 279 279 279 279 279 279 277 276 276 275 274 273 273 273 272 272 272 271 271 271 271 270 271 271 272 272 273 273 273 273 273 273 273 274 274 273 273 273 273 272 272 272 272 272 273 273 274 276 278 277 279 280 280 280 280 280 279 277 276 276
280 279 277 277 277 276 276 276 276 275 274 273 273 272 272 271 271 271 270 270 270 270 270 270 270 271 271 271 273 273 273 272 273 272 272 272 272 272 271 271 271 270 270 271 270 271 272 272 273 274 276 277 277 279 279 279 279 279 280 276 275 277
278 277 276 274 274 274 273 273 275 274 273 272 272 272 271 271 270 270 270 270 270 270 270 271 270 270 270 271 273 273 274 273 273 272 271 271 270 270 271 270 270 270 270 270 270 270 270 271 272 274 275 276 276 277 278 278 278 278 278 277 276 278
277 276 275 274 273 273 273 272 272 272 272 271 271 271 270 270 270 270 270 270 270 270 271 271 271 271 271 271 271 271 271 271 271 271 270 270 270 269 269 270 270 271 271 271 270 270 271 272 273 274 274 275 276 276 276 276 275 276 276 275 275 276
277 275 274 274 272 272 271 270 269 269 270 270 270 270 270 270 270 270 270 269 270 270 270 271 271 271 271 270 270 270 269 268 269 270 269 269 269 269 268 268 270 270 271 270 270 269 270 271 272 274 274 275 275 275 275 275 274 274 274 274 274 272
276 275 274 273 271 270 269 267 267 268 268 269 269 269 270 270 269 269 269 269 269 269 270 270 270 270 270 268 268 266 267 268 268 268 267 267 267 268 269 269 270 270 269 269 270 270 270 272 272 273 276 276 277 275 274 273 273 274 274 274 275 271
275 274 273 272 270 268 267 266 267 267 268 268 268 269 269 269 269 268 268 269 269 269 269 268 268 267 268 268 268 268 266 271 271 269 268 268 274 276 276 275 270 270 267 268 270 272 271 271 273 276 276 276 276 276 276 275 276 276 274 274 273 270
273 273 272 270 269 268 267 266 266 266 266 267 268 269 269 269 269 269 268 268 268 268 267 267 266 265 265 265 267 267 269 270 272 276 277 276 277 278 278 278 277 276 275 271 268 273 276 275 276 276 275 275 275 275 275 274 275 275 274 273 267 263
273 272 272 270 269 268 266 266 265 265 266 266 267 268 269 269 269 269 268 267 266 266 266 265 265 265 265 265 265 268 269 269 268 268 275 277 277 277 277 276 277 277 276 275 273 271 271 274 275 275 275 275 274 274 273 273 274 273 272 271 268 261
274 273 272 270 269 267 266 265 264 264 264 265 265 266 267 268 268 268 266 266 266 266 266 266 265 265 265 265 265 266 266 266 266 266 267 271 276 276 275 275 276 276 275 275 275 275 274 274 274 274 274 274 274 273 272 271 272 272 271 268 262 261
273 272 271 270 268 267 266 265 264 263 264 264 264 265 266 266 267 267 267 266 267 266 266 266 265 265 265 265 266 265 265 264 264 265 266 266 266 265 269 273 274 274 274 274 274 274 274 274 273 273 273 273 272 272 270 269 267 269 270 266 260 260
273 272 271 270 268 267 266 266 265 263 262 262 263 264 265 265 266 266 266 266 266 267 267 266 266 265 265 264 264 264 263 263 261 262 264 265 265 264 262 259 261 268 272 268 270 273 273 273 273 272 272 272 271 270 269 266 260 259 259 260 259 260
273 272 271 269 268 267 266 265 262 261 261 261 262 263 264 264 264 265 265 265 265 265 265 266 266 265 265 264 264 263 262 261 262 263 261 261 261 261 260 258 257 256 267 270 270 272 272 272 272 271 271 270 270 268 266 257 257 257 258 258 258 258
Wind_Speed
1 1 1 0 1 2 2 2 2 2 3 3 5 5 4 5 4 4 4 5 5 5 6 7 6 5 6 6 7 7 8 7 6 6 5 5 5 6 6 6 6 6 5 6 6 6 6 6 6 6 6 4 5 4 4 4 4 3 3 4 4 3
2 3 4 3 3 2 1 2 2 3 3 4 3 4 4 5 5 5 6 5 7 6 6 5 6 6 7 6 7 7 8 7 8 7 7 6 6 6 6 6 6 5 6 5 6 6 6 6 4 5 5 6 5 4 4 4 5 6 4 3 4 4
2 2 1 2 2 2 3 3 4 4 4 4 5 7 5 6 5 6 6 6 7 8 7 7 6 7 7 7 7 7 7 8 8 7 6 6 6 6 6 6 6 6 6 6 6 6 5 5 5 4 5 5 5 4 4 4 5 5 3 3 5 4
2 2 2 2 4 3 4 3 4 4 4 4 5 6 5 6 5 6 6 6 6 7 7 7 6 7 7 8 7 7 7 7 8 7 6 7 5 5 7 6 5 5 6 6 5 5 6 6 6 4 5 5 5 5 4 4 4 5 4 4 5 4
3 3 3 3 3 3 3 3 4 4 4 4 4 6 4 5 5 5 5 6 7 7 6 7 7 7 7 9 7 7 7 6 6 5 8 7 6 5 5 6 6 6 6 7 7 6 5 5 5 4 5 5 6 5 5 5 5 5 4 5 4 4
3 4 3 3 3 3 3 3 3 4 4 4 4 5 5 5 4 6 6 6 6 6 7 7 6 8 7 9 6 7 6 6 6 6 8 6 6 7 5 5 6 7 7 7 5 5 5 6 5 6 6 6 5 5 5 4 4 4 4 3 4 5
4 4 3 3 3 3 3 4 4 4 4 4 5 5 4 4 5 7 6 7 6 6 7 7 7 8 8 8 6 7 7 6 7 6 7 7 7 6 7 6 6 6 6 7 7 7 6 6 5 6 6 5 4 4 4 4 4 3 3 3 4 4
3 4 3 3 3 4 4 4 4 4 5 5 4 5 5 5 6 7 7 7 8 7 8 6 7 8 8 8 8 8 7 7 7 7 5 6 8 7 6 7 6 6 7 7 6 6 6 6 6 6 6 5 5 5 4 4 3 3 3 4 4 3
5 5 4 4 4 4 4 5 4 4 5 5 4 5 6 5 7 7 8 8 8 8 7 7 6 7 7 7 7 7 7 7 6 7 7 6 7 7 7 6 8 6 7 7 7 7 7 6 6 5 5 5 4 4 4 4 4 5 5 4 3 3
6 6 5 5 5 4 4 3 4 5 6 6 4 5 6 6 8 8 8 9 8 8 7 7 6 7 7 7 8 8 7 7 8 7 6 6 7 7 7 7 8 6 7 7 7 6 6 6 6 6 5 4 4 4 4 5 5 4 3 3 3 3
6 6 5 5 5 5 4 4 4 5 5 5 5 5 6 6 8 8 8 8 9 7 7 7 6 7 7 7 8 8 8 8 7 7 7 7 7 7 7 6 7 8 8 7 7 6 6 7 6 4 4 5 5 5 5 4 2 1 1 2 2 2
7 7 7 6 6 6 5 5 6 6 8 7 5 6 4 7 7 8 8 8 8 7 7 7 7 7 7 7 8 7 8 8 7 8 8 7 7 7 7 7 7 7 7 8 7 6 6 6 4 7 10 8 6 4 1 0 0 1 1 2 3 3
7 7 8 8 8 8 8 7 7 7 7 7 7 7 5 7 8 7 8 8 6 7 8 8 7 7 8 7 7 7 8 8 7 8 8 8 7 8 6 7 8 7 6 7 7 7 6 6 6 11 10 9 6 3 2 2 3 2 2 3 4 5
11 12 12 10 9 9 8 8 7 8 9 8 8 8 7 8 9 9 8 7 7 8 9 8 8 9 7 7 7 7 6 7 8 8 8 8 8 6 6 9 7 7 5 6 6 7 7 6 8 9 8 8 10 7 4 3 3 3 4 4 4 4
15 14 11 9 10 10 7 6 8 8 9 9 8 8 9 9 9 9 9 7 7 8 9 9 9 9 8 6 6 6 7 8 8 8 8 8 6 6 8 7 7 6 5 6 7 7 6 4 8 10 11 11 12 11 5 3 3 4 4 4 4 4
6 8 9 9 7 6 6 5 6 6 6 9 9 10 9 10 9 9 9 8 7 7 8 10 10 9 8 7 6 7 7 8 8 6 6 6 6 7 7 6 7 6 6 5 5 6 5 5 9 12 12 12 12 11 7 3 4 4 4 4 4 4
7 7 8 9 9 8 8 7 6 7 7 8 10 8 10 8 9 8 8 8 6 6 7 9 9 10 8 7 7 7 8 8 7 7 5 6 6 7 7 6 7 6 5 5 4 5 6 7 12 12 12 12 12 12 6 4 4 4 4 4 4 4
16 14 11 8 9 8 7 9 7 8 7 6 9 10 8 9 9 8 8 8 6 6 6 9 9 9 8 7 7 8 8 7 7 7 5 6 6 5 5 5 5 6 5 5 5 6 6 6 12 12 13 13 13 12 6 6 6 5 4 4 4 4
7 7 8 8 8 9 9 8 8 8 8 9 8 10 9 9 9 9 8 7 6 6 6 7 10 9 9 8 8 8 8 8 7 6 4 7 6 6 6 5 5 4 6 5 5 6 6 5 10 13 13 14 15 9 6 5 5 4 4 5 4 4
8 7 11 11 9 8 8 8 9 9 9 9 8 10 8 8 8 7 7 7 5 5 5 5 8 10 8 8 9 9 7 5 4 5 3 7 7 7 5 5 6 5 5 6 6 6 5 5 9 14 14 15 16 11 6 5 4 4 4 4 4 5
12 11 10 11 12 9 8 9 10 9 9 8 9 8 9 8 8 8 8 7 5 5 5 6 7 8 9 9 7 7 8 6 6 5 4 5 5 6 5 5 6 6 6 5 6 7 7 5 7 13 14 15 14 9 5 5 4 4 6 6 5 5
13 11 12 13 12 10 11 10 10 10 10 9 9 10 10 10 9 8 7 7 6 5 5 5 6 7 8 10 8 6 7 5 6 6 6 5 5 7 6 5 6 7 6 5 5 5 6 6 6 8 13 13 13 13 6 4 5 6 7 7 6 6
12 15 15 12 12 12 12 12 12 12 10 11 11 11 10 9 8 8 7 7 6 6 6 4 6 9 6 6 8 7 6 5 6 6 6 7 6 6 6 6 6 7 6 5 5 5 5 4 4 5 12 12 12 13 10 4 5 5 6 6 6 5
9 9 9 9 12 12 12 12 13 12 12 11 12 11 8 8 8 8 8 8 7 6 6 6 5 5 7 6 8 9 7 5 5 6 6 6 7 8 8 6 5 6 6 5 4 3 3 4 5 4 8 11 11 12 13 7 5 7 5 5 5 6
12 13 13 10 11 11 11 12 13 12 11 13 11 9 9 8 8 8 8 7 7 6 6 5 6 7 6 7 6 9 9 6 7 6 6 7 7 8 8 7 6 6 5 4 3 2 2 3 4 8 6 9 11 12 12 12 8 12 6 5 6 7
9 10 8 8 9 9 10 13 14 12 12 11 8 8 8 8 7 7 7 7 7 7 6 5 5 5 5 7 7 7 10 8 7 6 5 6 7 8 8 5 5 5 5 4 2 2 2 2 2 5 8 7 11 11 12 12 13 13 8 6 5 7
12 10 8 6 7 6 6 5 11 12 11 8 8 9 10 9 9 9 8 8 7 7 6 6 6 6 5 5 7 9 9 8 7 8 4 6 6 7 8 6 5 5 5 4 3 1 1 2 1 1 5 9 9 10 11 12 13 13 14 8 5 6
8 10 11 6 5 6 5 5 8 15 11 10 9 9 10 11 11 10 10 8 8 7 7 8 6 5 5 5 4 5 6 8 8 8 7 6 6 6 7 7 5 5 4 4 3 1 1 1 1 1 3 4 6 6 10 12 13 13 14 12 9 15
12 13 12 12 8 8 6 6 5 4 9 11 9 9 9 9 10 10 9 8 7 6 6 8 8 7 6 5 5 5 5 5 6 8 7 6 7 7 6 6 6 5 5 4 3 2 2 2 1 3 2 2 3 4 6 7 7 11 10 8 8 10
13 14 13 12 9 7 6 6 6 7 8 8 9 9 9 9 10 11 10 9 8 7 7 7 7 8 7 6 6 7 6 5 5 7 7 7 7 8 7 6 6 6 6 5 5 4 3 2 2 2 3 3 4 4 5 6 6 6 6 7 8 8
12 12 12 10 7 7 7 7 7 8 10 9 9 11 12 11 9 8 9 8 7 7 6 6 7 6 7 7 5 3 4 6 6 6 5 3 3 4 6 6 6 6 4 5 5 4 4 3 2 2 4 5 7 6 5 5 5 5 6 10 14 8
11 12 11 9 7 7 8 8 8 8 8 8 9 10 12 12 10 9 9 8 7 7 7 6 5 5 6 7 7 7 5 4 7 4 5 4 7 9 8 6 4 6 5 6 5 3 3 2 2 5 7 8 9 10 11 10 10 12 10 13 15 8
8 8 9 9 8 8 9 9 9 9 8 8 9 10 11 12 11 9 8 8 7 7 7 7 7 6 5 6 7 7 8 7 6 7 7 6 9 9 10 11 12 12 9 6 4 4 9 7 7 7 7 8 9 10 10 11 11 12 13 13 8 6
12 13 13 10 10 9 9 9 8 9 9 8 8 7 8 10 11 12 10 8 7 8 7 6 7 7 7 6 6 7 8 8 8 5 7 10 10 10 10 10 11 11 11 10 8 5 2 6 7 8 8 9 9 10 10 11 11 12 12 12 9 5
12 9 9 10 10 10 9 10 9 8 8 8 8 8 9 9 8 10 10 9 9 8 8 8 8 8 8 9 9 8 7 9 9 10 8 5 9 10 10 10 10 10 10 10 10 9 7 6 7 8 8 9 10 10 10 10 11 11 11 11 7 6
8 9 9 10 11 11 10 10 10 10 10 9 9 9 10 9 8 9 11 12 12 10 10 9 8 9 8 7 7 8 8 7 8 8 10 10 7 5 6 7 8 9 9 10 9 8 7 8 8 8 9 9 10 10 10 9 7 10 13 11 5 4
8 8 9 11 11 10 11 11 10 9 8 9 9 10 9 8 8 7 7 10 9 9 10 8 8 8 8 8 8 8 8 8 7 8 9 10 11 10 8 5 1 2 8 5 5 7 8 8 8 8 9 9 10 10 10 9 6 6 5 6 4 4
9 8 9 10 10 9 8 7 6 8 8 8 8 9 8 8 7 7 7 8 8 7 7 7 8 8 8 9 8 7 7 7 8 8 8 6 5 8 8 4 4 2 1 7 5 6 7 7 8 8 9 9 10 9 7 5 5 4 3 3 2 1
Wind_Direction
154 150 177 255 243 215 200 191 164 153 157 165 159 165 161 154 143 126 110 119 123 126 130 131 123 121 124 129 130 124 113 109 101 96 106 94 93 96 92 91 88 87 74 83 78 68 69 63 60 62 62 70 77 46 48 23 54 76 43 24 28 351
148 164 156 157 170 154 119 112 108 123 124 120 105 99 108 109 114 119 114 116 117 112 105 102 110 112 115 119 120 114 109 110 108 106 89 93 90 86 86 85 90 89 87 76 83 78 73 72 63 75 81 75 74 74 62 19 51 56 49 11 18 20
124 124 137 118 80 75 90 117 128 124 115 115 128 124 115 109 117 114 120 118 115 115 111 108 102 94 91 88 87 95 95 94 88 82 99 88 76 91 88 88 89 90 95 90 81 85 87 84 68 62 82 82 83 71 86 61 62 64 39 36 12 9
143 93 67 67 85 79 90 94 105 107 108 123 120 114 120 122 119 119 117 111 109 107 107 94 83 87 86 87 82 83 82 89 99 109 87 87 68 86 94 95 96 92 91 91 93 84 75 69 66 56 72 72 63 51 49 59 59 55 38 37 14 352
147 128 116 114 106 94 87 86 105 117 121 116 123 121 121 112 116 107 103 100 96 91 92 94 91 90 90 91 88 88 90 93 98 109 101 94 90 71 89 101 94 94 90 80 74 78 78 81 80 65 71 65 63 52 33 33 38 38 22 14 351 343
92 95 101 98 91 88 84 94 101 107 114 120 114 112 104 89 95 91 85 87 93 96 87 84 89 92 95 92 93 96 91 90 87 89 93 96 89 88 76 82 91 84 86 95 92 85 78 65 61 61 58 64 67 68 47 28 34 32 33 16 353 347
120 133 130 125 113 100 104 105 114 111 103 100 99 92 93 97 98 100 97 99 95 92 99 100 102 104 100 103 100 99 95 91 90 83 98 97 89 88 84 71 78 87 82 79 76 70 65 64 60 59 51 51 72 79 71 49 45 35 20 14 357 349
136 127 134 130 133 134 121 108 105 99 94 90 108 112 103 97 99 105 105 105 102 100 99 101 100 102 104 104 98 95 93 94 91 92 83 98 95 84 81 88 73 81 82 78 77 79 75 64 63 67 72 52 43 56 57 64 58 53 24 14 360 338
158 162 155 151 142 139 143 141 131 122 116 99 90 108 112 116 112 111 107 104 105 100 97 97 99 104 103 101 102 99 93 92 98 96 94 89 96 96 92 83 85 70 83 79 75 72 74 71 65 63 58 56 53 55 52 37 34 23 18 359 333 306
169 164 160 147 151 143 137 127 126 129 126 121 114 113 115 116 112 111 111 111 105 105 104 105 107 104 104 105 103 101 101 100 93 92 93 93 89 90 90 92 91 83 79 78 80 76 77 72 63 54 55 55 56 52 39 39 26 11 347 314 296 289
172 165 164 169 157 154 148 132 119 112 103 112 120 119 121 126 115 113 114 110 110 111 113 109 101 101 101 101 103 102 100 96 97 94 91 89 90 86 88 88 88 90 82 74 77 75 67 66 58 59 63 56 45 40 38 32 20 326 311 312 309 301
169 171 169 171 169 161 158 149 147 143 138 135 129 116 120 113 109 113 111 111 116 117 112 107 104 103 102 101 101 102 102 101 98 98 94 91 91 89 87 86 82 84 89 88 77 72 68 63 59 55 56 60 69 62 66 41 105 343 341 344 337 338
176 173 176 179 174 172 166 166 159 148 136 134 129 123 123 115 113 110 115 117 119 119 113 108 107 106 104 107 106 106 105 104 106 102 96 91 87 88 87 89 84 81 81 86 86 79 68 59 52 49 50 51 62 89 70 59 21 19 15 13 10 0
186 183 183 179 178 175 171 166 161 150 144 139 133 130 125 118 119 121 120 122 124 121 117 115 114 109 109 108 107 108 108 107 102 96 95 95 90 87 90 81 83 83 83 87 84 76 66 58 51 57 56 55 59 63 54 43 32 23 17 13 9 356
193 185 176 173 177 174 170 156 153 157 150 138 136 127 125 125 126 126 125 130 129 130 124 123 119 115 114 114 116 115 108 103 96 96 96 92 98 95 83 87 87 84 82 85 86 81 71 66 55 60 55 54 53 52 54 42 36 33 22 11 8 358
209 190 175 167 159 153 147 149 147 145 141 133 130 128 128 128 127 128 130 128 132 134 129 126 123 121 123 124 118 113 107 101 98 99 96 101 94 92 93 89 87 86 81 82 91 93 83 65 51 52 50 50 49 46 46 34 34 32 21 16 5 359
187 174 163 164 158 150 139 133 137 139 135 137 127 125 126 127 127 127 129 127 130 132 129 125 124 123 124 120 115 108 103 102 103 96 96 99 99 98 95 92 90 84 86 83 89 89 69 51 46 48 46 48 49 44 48 35 34 29 24 11 6 357
188 179 165 143 141 146 144 142 143 139 138 130 127 127 126 130 128 127 126 128 134 136 134 130 126 121 120 119 113 109 106 103 109 113 114 103 92 82 89 78 82 86 80 75 72 76 66 45 42 43 44 45 47 44 37 37 27 23 20 7 2 352
145 153 136 137 137 140 143 143 140 138 137 135 132 128 131 132 132 133 131 129 132 135 136 135 128 125 124 125 118 113 116 118 114 108 115 104 98 100 91 93 83 76 77 71 67 72 69 51 37 41 41 40 41 43 31 31 25 15 18 360 343 338
124 135 143 139 141 143 142 143 141 143 141 138 134 129 128 128 125 122 121 123 128 132 133 135 131 128 128 126 123 121 116 107 98 107 110 116 120 105 103 103 89 73 71 73 73 66 71 52 27 41 39 39 35 36 31 19 18 4 3 354 342 340
146 142 138 140 145 150 144 142 141 141 141 140 135 129 130 133 133 135 136 136 137 135 134 134 130 128 128 123 121 122 122 121 122 121 107 105 105 103 102 92 94 90 74 70 72 61 61 44 29 38 40 36 31 33 30 20 8 2 2 350 341 338
132 142 149 157 156 148 147 144 143 145 148 147 140 139 144 149 147 140 134 136 135 133 125 127 124 124 127 126 123 118 119 125 115 115 113 99 98 103 97 95 95 94 81 67 55 51 48 42 21 30 39 32 28 27 29 13 3 3 353 347 339 332
156 160 161 156 152 152 153 149 146 152 156 151 147 154 156 148 141 138 139 134 130 127 125 121 129 128 122 125 126 122 109 107 115 114 110 112 105 103 99 98 99 89 81 62 53 47 36 35 22 18 34 28 27 23 24 7 6 356 350 336 331 330
144 140 146 156 157 156 155 153 151 154 158 157 160 157 142 138 138 136 135 137 132 129 124 122 114 113 124 125 121 115 105 95 99 108 115 114 114 110 104 100 93 91 86 77 58 42 32 15 12 40 23 27 23 21 17 17 1 357 345 330 324 322
161 165 159 158 159 160 160 153 153 159 163 164 158 142 140 138 136 136 132 128 126 123 123 121 126 127 124 122 120 120 116 118 114 112 114 118 113 108 104 96 97 99 96 86 58 38 18 13 356 35 33 24 22 19 15 11 5 358 353 337 331 336
149 148 151 156 158 162 164 161 159 164 164 160 135 131 126 124 123 122 121 122 122 124 123 125 119 116 118 125 128 123 122 122 119 111 114 118 118 118 108 102 104 103 102 98 71 24 7 354 354 17 33 24 19 15 12 7 4 1 359 354 338 334
151 142 141 151 157 159 162 168 158 157 155 144 136 138 138 134 133 133 133 137 138 135 135 123 121 121 122 133 139 132 129 126 130 117 116 119 113 115 114 116 115 116 122 117 109 73 350 333 330 306 24 25 18 14 11 8 4 5 3 0 341 333
134 144 147 148 156 153 157 157 163 162 163 148 150 146 143 142 141 142 144 144 143 142 139 127 119 111 115 121 120 124 129 137 140 128 130 122 115 115 120 128 129 130 132 131 147 150 126 331 289 11 39 8 19 12 13 9 7 6 5 2 346 344
153 162 163 165 173 166 164 158 160 142 139 150 145 143 143 143 142 140 142 141 140 141 145 142 141 137 129 123 119 112 123 128 127 127 126 128 127 127 128 136 142 143 145 144 151 144 132 52 21 58 20 335 8 7 12 6 4 3 3 356 346 353
167 167 169 171 170 160 150 143 136 133 139 140 144 142 141 145 150 149 152 153 153 154 157 152 148 143 137 138 140 136 127 107 111 121 132 144 149 141 148 147 153 150 151 150 142 137 142 98 72 50 25 352 22 16 19 8 359 2 2 357 356 5
170 171 170 167 158 150 146 143 140 145 151 154 153 155 151 152 151 146 147 149 149 155 157 153 152 147 140 132 116 84 92 122 120 122 125 161 151 148 147 146 142 147 146 137 140 149 152 123 116 30 40 41 36 32 23 7 359 7 13 5 4 6
173 170 171 160 153 152 149 151 155 161 163 161 163 161 157 152 147 148 155 158 157 152 148 147 141 142 141 138 132 124 97 106 129 146 143 174 176 162 149 146 145 148 144 131 157 151 135 148 95 62 57 50 44 38 32 32 31 27 24 15 17 13
170 165 166 162 158 160 163 164 169 168 173 174 174 171 163 155 151 154 155 160 166 161 155 149 145 144 136 135 135 134 133 131 126 134 139 137 133 130 127 123 127 129 132 120 98 98 108 90 84 81 68 59 52 44 40 43 42 33 31 25 39 13
179 183 177 163 167 170 169 169 177 179 175 176 176 173 164 165 158 160 167 161 155 148 152 153 149 148 147 150 153 151 146 141 132 122 141 141 132 128 127 125 124 122 120 121 123 121 94 95 91 85 75 68 60 52 52 57 53 45 41 35 51 54
183 174 166 167 171 172 174 175 180 176 178 174 176 171 169 173 169 157 155 158 157 158 158 159 159 163 161 161 161 165 161 155 154 147 146 142 134 127 123 121 123 120 114 109 113 116 118 111 100 88 82 73 65 61 63 70 64 57 50 52 47 55
172 173 171 173 176 175 175 183 182 179 178 172 174 177 178 177 174 170 165 166 168 160 163 165 167 165 170 169 166 165 165 174 168 159 152 149 150 134 110 99 109 119 110 110 113 112 108 107 100 91 83 77 70 68 71 74 68 63 52 59 66 43
166 174 179 177 177 180 188 192 182 169 168 172 174 174 175 175 167 162 169 165 162 163 165 167 165 165 161 166 168 169 171 170 173 165 164 165 165 164 167 176 180 96 122 104 100 112 115 111 102 93 85 79 75 73 84 80 62 46 19 32 39 45
178 183 176 178 185 189 191 192 165 166 171 175 174 176 174 169 164 162 162 164 167 163 166 167 165 165 167 168 170 167 161 160 161 166 172 166 154 154 150 157 180 199 109 113 102 115 121 113 103 89 83 79 77 74 83 69 62 72 41 46 3 14